Date String (YYYY-MM-DD hh:mm:ss) UTC,Instrument flags,Ambient pressure (hPa),Sample flow (lpm),Bypass flow (lpm),Sample temperature (°C),Ambient temperature (°C),ASC tube jacket temperature (°C),LED temperature (°C),Box temperature (°C),Sample RH (%),Span deviation,Mass concentration (μg/m³),Mass concentration (μg/m³),Mass concentration (μg/m³)
DateTimeUTC,F1_M11,P_M11,Q1_M11,Q2_M11,T1_M11,T2_M11,T3_M11,T4_M11,T5_M11,U1_M11,ZSPAN_M11,X2_M11,X0_M11,X1_M11
2021-12-24 01:00:00,,0814.1,5.02,0.00,24.4,23.6,00.0,33.4,26.1,20.1,0000.0,0000.25,0001.05,0000.16
2021-12-24 01:01:00,,0814.0,5.00,0.00,24.4,23.6,00.0,33.4,26.1,19.8,0000.0,0000.27,0001.09,0000.17
2021-12-24 01:02:00,,0814.1,5.00,0.00,24.4,23.6,00.0,33.4,26.1,20.0,0000.0,0000.27,0001.12,0000.16
2021-12-24 01:03:00,,0814.1,4.99,0.00,24.4,23.6,00.0,33.4,26.1,19.9,0000.0,0000.27,0001.12,0000.16
2021-12-24 01:04:00,,0814.3,5.01,0.00,24.4,23.6,00.0,33.5,26.1,19.9,0000.0,0000.26,0001.09,0000.16
2021-12-24 01:05:00,,0813.8,5.00,0.00,24.4,23.6,00.0,33.5,26.1,20.0,0000.0,0000.26,0001.10,0000.16
2021-12-24 01:06:00,,0813.9,5.00,0.00,24.4,23.6,00.0,33.4,26.1,19.9,0000.0,0000.27,0001.10,0000.17
2021-12-24 01:07:00,,0814.0,5.01,0.00,24.4,23.7,00.0,33.4,26.1,19.9,0000.0,0000.26,0001.04,0000.17
2021-12-24 01:08:00,,0814.4,4.99,0.00,24.4,23.7,00.0,33.4,26.1,19.7,0000.0,0000.24,0000.97,0000.16
2021-12-24 01:09:00,,0814.1,4.99,0.00,24.4,23.6,00.0,33.4,26.1,19.7,0000.0,0000.24,0000.71,0000.16
2021-12-24 01:10:00,,0814.1,5.01,0.00,24.3,23.6,00.0,33.4,26.0,19.8,0000.0,0000.23,0000.38,0000.16
2021-12-24 01:11:00,,0814.1,5.01,0.00,24.3,23.6,00.0,33.4,26.0,19.8,0000.0,0000.23,0000.37,0000.17
2021-12-24 01:12:00,,0814.0,5.00,0.00,24.4,23.6,00.0,33.4,26.0,20.0,0000.0,0000.23,0001.29,0000.17
2021-12-24 01:13:00,,0814.0,4.98,0.00,24.4,23.6,00.0,33.4,26.1,20.0,0000.0,0000.23,0001.56,0000.17
2021-12-24 01:14:00,,0814.0,5.01,0.00,24.4,23.6,00.0,33.4,26.1,20.0,0000.0,0000.24,0001.57,0000.17
2021-12-24 01:15:00,,0814.0,4.99,0.00,24.4,23.6,00.0,33.4,26.1,19.9,0000.0,0000.24,0001.57,0000.18
2021-12-24 01:16:00,,0814.1,5.00,0.00,24.4,23.6,00.0,33.4,26.1,19.9,0000.0,0000.24,0001.57,0000.18
2021-12-24 01:17:00,,0814.3,5.01,0.00,24.4,23.6,00.0,33.4,26.1,19.9,0000.0,0000.24,0001.58,0000.18
2021-12-24 01:18:00,,0814.3,5.01,0.00,24.4,23.6,00.0,33.4,26.1,19.8,0000.0,0000.24,0001.68,0000.18
2021-12-24 01:19:00,,0814.0,4.99,0.00,24.4,23.6,00.0,33.4,26.1,19.8,0000.0,0000.25,0001.70,0000.19
2021-12-24 01:20:00,,0814.1,5.01,0.00,24.4,23.6,00.0,33.4,26.1,20.0,0000.0,0000.25,0001.72,0000.18
2021-12-24 01:21:00,,0814.3,5.00,0.00,24.4,23.6,00.0,33.4,26.2,20.1,0000.0,0000.25,0001.70,0000.19
2021-12-24 01:22:00,,0814.2,5.00,0.00,24.5,23.6,00.0,33.4,26.2,20.3,0000.0,0000.25,0001.71,0000.19
2021-12-24 01:23:00,,0814.1,4.99,0.00,24.5,23.7,00.0,33.4,26.2,20.3,0000.0,0000.27,0000.96,0000.19
2021-12-24 01:24:00,,0813.7,5.02,0.00,24.5,23.7,00.0,33.5,26.2,20.3,0000.0,0000.29,0000.70,0000.20
2021-12-24 01:25:00,,0813.6,5.01,0.00,24.5,23.7,00.0,33.5,26.2,20.3,0000.0,0000.30,0000.73,0000.20
2021-12-24 01:26:00,,0813.5,4.98,0.00,24.5,23.7,00.0,33.5,26.3,20.3,0000.0,0000.31,0000.76,0000.20
2021-12-24 01:27:00,,0813.5,5.00,0.00,24.5,23.7,00.0,33.5,26.3,20.3,0000.0,0000.32,0000.78,0000.20
2021-12-24 01:28:00,,0813.3,5.01,0.00,24.5,23.7,00.0,33.5,26.2,20.1,0000.0,0000.31,0000.77,0000.20
2021-12-24 01:29:00,,0813.3,5.00,0.00,24.5,23.7,00.0,33.5,26.3,20.1,0000.0,0000.31,0000.68,0000.21
2021-12-24 01:30:00,,0813.2,4.98,0.00,24.5,23.7,00.0,33.5,26.3,20.2,0000.0,0000.31,0000.92,0000.21
2021-12-24 01:31:00,,0813.2,5.01,0.00,24.5,23.7,00.0,33.5,26.3,20.0,0000.0,0000.31,0001.10,0000.22
2021-12-24 01:32:00,,0813.3,4.99,0.00,24.5,23.7,00.0,33.5,26.3,19.9,0000.0,0000.31,0001.35,0000.21
2021-12-24 01:33:00,,0813.3,5.00,0.00,24.5,23.7,00.0,33.5,26.2,19.9,0000.0,0000.30,0001.34,0000.20
2021-12-24 01:34:00,,0813.5,5.01,0.00,24.5,23.7,00.0,33.5,26.2,19.9,0000.0,0000.29,0001.28,0000.21
2021-12-24 01:35:00,,0813.4,4.99,0.00,24.5,23.7,00.0,33.5,26.2,20.0,0000.0,0000.27,0001.11,0000.22
2021-12-24 01:36:00,,0813.3,5.00,0.00,24.5,23.6,00.0,33.5,26.2,19.9,0000.0,0000.26,0001.09,0000.22
2021-12-24 01:37:00,,0813.4,5.01,0.00,24.5,23.6,00.0,33.5,26.2,20.0,0000.0,0000.27,0001.14,0000.22
2021-12-24 01:38:00,,0813.4,5.00,0.00,24.5,23.7,00.0,33.5,26.3,20.0,0000.0,0000.27,0001.13,0000.22
2021-12-24 01:39:00,,0813.4,5.00,0.00,24.5,23.7,00.0,33.5,26.2,20.0,0000.0,0000.27,0001.15,0000.23
2021-12-24 01:40:00,,0813.5,4.99,0.00,24.5,23.7,00.0,33.5,26.2,20.1,0000.0,0000.27,0001.15,0000.23
2021-12-24 01:41:00,,0813.4,5.00,0.00,24.5,23.7,00.0,33.5,26.2,20.0,0000.0,0000.27,0000.85,0000.23
2021-12-24 01:42:00,,0813.4,5.01,0.00,24.5,23.7,00.0,33.5,26.2,20.0,0000.0,0000.27,0000.67,0000.23
2021-12-24 01:43:00,,0813.4,5.00,0.00,24.5,23.7,00.0,33.5,26.1,19.9,0000.0,0000.29,0000.46,0000.24
2021-12-24 01:44:00,,0813.4,4.99,0.00,24.5,23.6,00.0,33.5,26.2,20.0,0000.0,0000.29,0000.46,0000.25
2021-12-24 01:45:00,,0813.3,5.02,0.00,24.5,23.6,00.0,33.5,26.2,19.9,0000.0,0000.29,0000.46,0000.24
2021-12-24 01:46:00,,0813.3,5.00,0.00,24.5,23.6,00.0,33.5,26.2,20.0,0000.0,0000.30,0000.48,0000.24
2021-12-24 01:47:00,,0813.2,5.00,0.00,24.5,23.6,00.0,33.5,26.1,20.0,0000.0,0000.30,0000.49,0000.25
2021-12-24 01:48:00,,0813.2,4.99,0.00,24.5,23.6,00.0,33.5,26.1,19.9,0000.0,0000.29,0000.48,0000.25
2021-12-24 01:49:00,,0813.2,5.02,0.00,24.5,23.6,00.0,33.5,26.1,20.0,0000.0,0000.31,0000.53,0000.24
2021-12-24 01:50:00,,0813.2,4.98,0.00,24.4,23.6,00.0,33.5,26.1,20.0,0000.0,0000.32,0000.55,0000.24
2021-12-24 01:51:00,,0813.2,5.00,0.00,24.4,23.6,00.0,33.5,26.1,20.0,0000.0,0000.33,0000.60,0000.25
2021-12-24 01:52:00,,0813.2,5.02,0.00,24.4,23.6,00.0,33.5,26.0,19.9,0000.0,0000.34,0000.64,0000.24
2021-12-24 01:53:00,,0813.2,5.00,0.00,24.4,23.6,00.0,33.5,26.1,19.8,0000.0,0000.36,0000.68,0000.25
2021-12-24 01:54:00,,0813.1,5.00,0.00,24.4,23.5,00.0,33.5,26.0,19.7,0000.0,0000.35,0000.65,0000.25
2021-12-24 01:55:00,,0813.0,5.00,0.00,24.3,23.5,00.0,33.5,26.0,19.7,0000.0,0000.34,0000.65,0000.24
2021-12-24 01:56:00,,0813.1,4.99,0.00,24.3,23.5,00.0,33.5,26.0,19.7,0000.0,0000.34,0000.63,0000.24
2021-12-24 01:57:00,,0813.0,5.01,0.00,24.3,23.5,00.0,33.5,26.0,19.8,0000.0,0000.32,0000.61,0000.23
2021-12-24 01:58:00,,0813.1,4.98,0.00,24.3,23.5,00.0,33.4,25.9,19.7,0000.0,0000.32,0000.60,0000.23
2021-12-24 01:59:00,,0812.8,5.01,0.00,24.2,23.4,00.0,33.4,25.9,19.7,0000.0,0000.32,0000.56,0000.22
